Weather History for Rayong, Thailand

Change the Weather History Date:

Sunday, October 30, 2011

  Actual Average Record
Temperature  
Mean Temperature 83 °F -  
Max Temperature 91 °F 88 °F 95 °F (2003)
Min Temperature 75 °F 75 °F 71 °F (2007)
Cooling Degree Days 18    
Growing Degree Days 33 (Base 50)    
Moisture  
Dew Point 76 °F    
Average Humidity 83    
Maximum Humidity 94    
Minimum Humidity 55    
Precipitation  
Precipitation 0.00 in - - ()
Sea Level Pressure  
Sea Level Pressure 29.77 in    
Wind  
Wind Speed 4 mph ()    
Max Wind Speed 7 mph    
Max Gust Speed -    
Visibility 4.6 miles    
Events Rain , Thunderstorm    
Averages and records for this station are not official NWS values.
T = Trace of Precipitation, MM = Missing Value Source: Averaged Metar Reports

Daily Weather History Graph

Daily Weather History Graph

Search for Another Location

Airport:

Trip Planner

Search our weather history database for the weather conditions in past years. The results will help you decide how hot, cold, wet, or windy it might be!

Date:

Astronomy

Oct. 30, 2011 Rise Set
Actual Time 6:08 AM ICT 5:50 PM ICT
Civil Twilight 5:46 AM ICT 6:12 PM ICT
Nautical Twilight 5:21 AM ICT 6:37 PM ICT
Astronomical Twilight 4:56 AM ICT 7:02 PM ICT
Moon 9:28 AM ICT (10/30) 9:12 PM ICT (10/30)
Length of Visible Light 12h 25m
Length of Day
11h 41m
Waxing Crescent, 16% of the Moon is Illuminated
Oct 30
Waxing Crescent
Nov 2
First Quarter
Nov 11
Full
Nov 18
Last Quarter
Nov 25
New

Hourly Weather History & Observations

Time (ICT) Temp. Heat Index Dew Point Humidity Pressure Visibility Wind Dir Wind Speed Gust Speed Precip Events Conditions
12:00 AM 77.0 °F - 75.2 °F 94% 29.80 in 4.3 mi North 3.5 mph - N/A   Mostly Cloudy
12:30 AM 77.0 °F - 75.2 °F 94% 29.80 in 4.3 mi NNW 3.5 mph - N/A   Scattered Clouds
1:00 AM 77.0 °F - 75.2 °F 94% 29.77 in 4.3 mi North 3.5 mph - N/A   Scattered Clouds
1:30 AM 77.0 °F - 75.2 °F 94% 29.77 in 4.3 mi NNW 4.6 mph - N/A   Scattered Clouds
2:00 AM 77.0 °F - 75.2 °F 94% 29.77 in 4.3 mi North 3.5 mph - N/A   Scattered Clouds
3:00 AM 75.2 °F - 73.4 °F 94% 29.74 in 4.3 mi NNW 4.6 mph - N/A   Scattered Clouds
4:00 AM 75.2 °F - 73.4 °F 94% 29.74 in 4.3 mi NNW 4.6 mph - N/A   Scattered Clouds
5:00 AM 75.2 °F - 73.4 °F 94% 29.74 in 3.7 mi North 6.9 mph - N/A   Scattered Clouds
5:30 AM 75.2 °F - 73.4 °F 94% 29.74 in 3.7 mi North 5.8 mph - N/A   Scattered Clouds
6:00 AM 75.2 °F - 73.4 °F 94% 29.74 in 4.3 mi North 6.9 mph - N/A   Scattered Clouds
6:30 AM 77.0 °F - 73.4 °F 89% 29.77 in 4.3 mi North 6.9 mph - N/A   Scattered Clouds
7:00 AM 78.8 °F - 73.4 °F 83% 29.77 in 4.3 mi North 6.9 mph - N/A   Scattered Clouds
8:00 AM 80.6 °F 86.2 °F 75.2 °F 84% 29.80 in 5.0 mi North 6.9 mph - N/A   Scattered Clouds
8:30 AM 84.2 °F 92.3 °F 75.2 °F 74% 29.80 in 5.6 mi North 6.9 mph - N/A   Scattered Clouds
9:00 AM 86.0 °F 95.1 °F 75.2 °F 70% 29.80 in 6.2 mi North 4.6 mph - N/A   Scattered Clouds
9:30 AM 87.8 °F 97.6 °F 75.2 °F 66% 29.83 in 6.2 mi NNE 5.8 mph - N/A   Scattered Clouds
10:00 AM 87.8 °F 97.6 °F 75.2 °F 66% 29.83 in 6.2 mi NNE 5.8 mph - N/A   Scattered Clouds
10:30 AM 89.6 °F 99.8 °F 75.2 °F 62% 29.80 in 6.2 mi NNE 4.6 mph - N/A   Scattered Clouds
11:00 AM 89.6 °F 102.2 °F 77.0 °F 66% 29.80 in 6.2 mi NE 6.9 mph - N/A   Scattered Clouds
11:30 AM 91.4 °F 100.1 °F 73.4 °F 55% 29.80 in 6.2 mi NNE 4.6 mph - N/A   Scattered Clouds
12:00 PM 91.4 °F 100.1 °F 73.4 °F 55% 29.77 in 6.2 mi NNE 3.5 mph - N/A   Scattered Clouds
12:30 PM 91.4 °F 100.1 °F 73.4 °F 55% 29.77 in 6.2 mi NNE 4.6 mph - N/A   Scattered Clouds
1:00 PM 89.6 °F 98.2 °F 73.4 °F 59% 29.77 in 6.2 mi NNE 3.5 mph - N/A   Scattered Clouds
1:30 PM 87.8 °F 99.7 °F 77.0 °F 70% 29.77 in 6.2 mi WNW 4.6 mph - N/A   Scattered Clouds
2:00 PM 87.8 °F 99.7 °F 77.0 °F 70% 29.74 in 5.6 mi NW 5.8 mph - N/A   Scattered Clouds
2:30 PM 87.8 °F 99.7 °F 77.0 °F 70% 29.74 in 5.6 mi WNW 6.9 mph - N/A   Scattered Clouds
3:00 PM 89.6 °F 102.2 °F 77.0 °F 66% 29.71 in 5.6 mi WNW 4.6 mph - N/A   Mostly Cloudy
3:30 PM 86.0 °F 95.1 °F 75.2 °F 70% 29.71 in 5.0 mi North 4.6 mph - N/A Thunderstorm Thunderstorm
4:00 PM 80.6 °F 87.1 °F 77.0 °F 89% 29.74 in 4.3 mi North 4.6 mph - N/A Rain , Thunderstorm Light Thunderstorms and Rain
4:30 PM 80.6 °F 87.1 °F 77.0 °F 89% 29.74 in 4.3 mi North 3.5 mph - N/A Thunderstorm Thunderstorm
5:00 PM 80.6 °F 86.2 °F 75.2 °F 84% 29.74 in 4.3 mi NNE 3.5 mph - N/A   Mostly Cloudy
5:30 PM 80.6 °F 87.1 °F 77.0 °F 89% 29.74 in 4.3 mi North 3.5 mph - N/A   Scattered Clouds
6:00 PM 80.6 °F 87.1 °F 77.0 °F 89% 29.77 in 4.3 mi NNE 3.5 mph - N/A   Scattered Clouds
6:30 PM 78.8 °F - 77.0 °F 94% 29.77 in 4.3 mi North 3.5 mph - N/A   Scattered Clouds
7:00 PM 78.8 °F - 77.0 °F 94% 29.77 in 3.7 mi NNW 4.6 mph - N/A   Scattered Clouds
7:30 PM 78.8 °F - 77.0 °F 94% 29.77 in 3.7 mi North 2.3 mph - N/A   Scattered Clouds
8:00 PM 78.8 °F - 77.0 °F 94% 29.80 in 3.7 mi North 4.6 mph - N/A   Scattered Clouds
8:30 PM 78.8 °F - 77.0 °F 94% 29.80 in 3.7 mi NNW 3.5 mph - N/A   Scattered Clouds
9:00 PM 78.8 °F - 77.0 °F 94% 29.80 in 3.1 mi NNW 4.6 mph - N/A   Scattered Clouds
9:30 PM 78.8 °F - 77.0 °F 94% 29.83 in 3.1 mi North 3.5 mph - N/A   Scattered Clouds
10:00 PM 78.8 °F - 77.0 °F 94% 29.80 in 3.1 mi NNW 5.8 mph - N/A   Scattered Clouds
10:30 PM 78.8 °F - 77.0 °F 94% 29.80 in 3.1 mi North 4.6 mph - N/A   Scattered Clouds
11:00 PM 78.8 °F - 77.0 °F 94% 29.80 in 3.1 mi NNW 3.5 mph - N/A   Scattered Clouds
11:30 PM 78.8 °F - 77.0 °F 94% 29.80 in 3.1 mi NNW 5.8 mph - N/A   Scattered Clouds